Williamtown, Australia

9:50 AM AEDT on October 20, 2017 (GMT +1100)
Williamtown Military

Weather History for YWLM - March, 2013

Change the Weather History Date:

Wednesday, March 20, 2013

  Actual Average Record
Temperature  
Mean Temperature 66 °F -  
Max Temperature 78 °F - - ()
Min Temperature 53 °F - - ()
Growing Degree Days 16 (Base 50)    
Moisture  
Dew Point 57 °F    
Average Humidity 73    
Maximum Humidity 100    
Minimum Humidity 36    
Precipitation  
Precipitation 0.00 in - - ()
Sea Level Pressure  
Sea Level Pressure 30.22 in    
Wind  
Wind Speed 4 mph ()    
Max Wind Speed 16 mph    
Max Gust Speed -    
Visibility 7.2 miles    
Events      
T = Trace of Precipitation, MM = Missing Value Source: Averaged Metar Reports

Daily Weather History Graph

Daily Weather History Graph

Search for Another Location

Airport or City:

Trip Planner

Search our weather history database for the weather conditions in past years. The results will help you decide how hot, cold, wet, or windy it might be!

Date:

Astronomy

Mar. 20, 2013 Rise Set
Actual Time 6:55 AM AEDT 7:04 PM AEDT
Civil Twilight 6:31 AM AEDT 7:28 PM AEDT
Nautical Twilight 6:02 AM AEDT 7:57 PM AEDT
Astronomical Twilight 5:33 AM AEDT 8:26 PM AEDT
Moon 2:11 PM AEDT (3/20) No Moon Set
Length of Visible Light 12h 57m
Length of Day
12h 08m
First Quarter, 53% of the Moon is Illuminated
Mar 20
First Quarter
Mar 27
Full
Apr 3
Last Quarter
Apr 10
New
Apr 18
First Quarter

Hourly Weather History & Observations

Time (AEDT) Temp. Dew Point Humidity Pressure Visibility Wind Dir Wind Speed Gust Speed Precip Events Conditions
12:00 AM 59 °F 57 °F 89% 30.28 in - Calm Calm - -  
12:00 AM 59.0 °F 57.2 °F 94% 30.27 in 6.2 mi Calm Calm - N/A   Unknown
12:30 AM 59.0 °F 57.2 °F 94% 30.27 in 6.2 mi Calm Calm - N/A   Unknown
1:00 AM 57.2 °F 57.2 °F 100% 30.27 in 6.2 mi Calm Calm - N/A   Unknown
1:30 AM 57.2 °F 55.4 °F 94% 30.24 in 6.2 mi Calm Calm - N/A   Unknown
2:00 AM 57 °F 56 °F 93% 30.26 in - Calm Calm - -  
2:00 AM 57.2 °F 55.4 °F 94% 30.24 in 6.2 mi Calm Calm - N/A   Unknown
2:30 AM 55.4 °F 55.4 °F 100% 30.24 in 6.2 mi Calm Calm - N/A   Unknown
3:00 AM 56 °F 55 °F 94% 30.25 in - Calm Calm - -  
3:00 AM 55.4 °F 55.4 °F 100% 30.24 in 6.2 mi Calm Calm - N/A   Unknown
3:30 AM 55.4 °F 55.4 °F 100% 30.24 in 6.2 mi Calm Calm - N/A   Unknown
4:00 AM 55.4 °F 53.6 °F 94% 30.21 in 6.2 mi Calm Calm - N/A   Unknown
4:30 AM 55.4 °F 53.6 °F 94% 30.21 in 6.2 mi Calm Calm - N/A   Unknown
5:00 AM 55 °F 53 °F 92% 30.24 in - Calm Calm - -  
5:00 AM 55.4 °F 53.6 °F 94% 30.21 in 6.2 mi Calm Calm - N/A   Unknown
5:30 AM 53.6 °F 53.6 °F 100% 30.24 in 6.2 mi Calm Calm - N/A   Unknown
6:00 AM 54 °F 53 °F 96% 30.25 in 16 mi Calm Calm - -   Partly Cloudy
6:00 AM 53.6 °F 53.6 °F 100% 30.24 in 6.2 mi Calm Calm - N/A   Scattered Clouds
6:30 AM 55.4 °F 53.6 °F 94% 30.24 in 6.2 mi Calm Calm - N/A   Partly Cloudy
7:00 AM 53.6 °F 53.6 °F 100% 30.24 in 6.2 mi NW 1.2 mph - N/A   Partly Cloudy
7:30 AM 55.4 °F 53.6 °F 94% 30.27 in 6.2 mi Calm Calm - N/A   Partly Cloudy
8:00 AM 60 °F 58 °F 92% 30.27 in - Calm Calm - -  
8:00 AM 59.0 °F 59.0 °F 100% 30.27 in 6.2 mi Calm Calm - N/A   Partly Cloudy
8:30 AM 62.6 °F 60.8 °F 94% 30.27 in 6.2 mi Calm Calm - N/A   Partly Cloudy
9:00 AM 67 °F 61 °F 76% 30.27 in 19 mi Calm Calm - -   Partly Cloudy
9:00 AM 68.0 °F 60.8 °F 78% 30.27 in 6.2 mi Calm Calm - N/A   Partly Cloudy
9:30 AM 69.8 °F 60.8 °F 73% 30.27 in 6.2 mi East 5.8 mph - N/A   Partly Cloudy
10:00 AM 71.6 °F 60.8 °F 69% 30.27 in 6.2 mi ENE 6.9 mph - N/A   Scattered Clouds
10:30 AM 71.6 °F 60.8 °F 69% 30.27 in 6.2 mi ENE 9.2 mph - N/A   Partly Cloudy
11:00 AM 75 °F 59 °F 47% 30.27 in - NE 10.4 mph - -  
11:00 AM 75.2 °F 59.0 °F 57% 30.27 in 6.2 mi NE 10.4 mph - N/A   Partly Cloudy
11:30 AM 75.2 °F 57.2 °F 53% 30.24 in 6.2 mi ENE 9.2 mph - N/A   Partly Cloudy
12:00 PM 75 °F 58 °F 44% 30.26 in 19 mi NE 10.4 mph - -   Partly Cloudy
12:00 PM 75.2 °F 57.2 °F 53% 30.24 in 6.2 mi NE 10.4 mph - N/A   Scattered Clouds
12:30 PM 77.0 °F 55.4 °F 47% 30.21 in 6.2 mi NE 10.4 mph - N/A   Scattered Clouds
1:00 PM 78.8 °F 57.2 °F 47% 30.21 in 6.2 mi East 13.8 mph - N/A   Scattered Clouds
1:30 PM 77.0 °F 57.2 °F 50% 30.21 in 6.2 mi ESE 12.7 mph - N/A   Scattered Clouds
2:00 PM 78 °F 56 °F 36% 30.20 in - ENE 8.1 mph - -  
2:00 PM 77.0 °F 55.4 °F 47% 30.18 in 6.2 mi ENE 8.1 mph - N/A   Scattered Clouds
2:30 PM 77.0 °F 57.2 °F 50% 30.18 in 6.2 mi East 12.7 mph - N/A   Scattered Clouds
3:00 PM 78 °F 56 °F 37% 30.18 in 19 mi ENE 12.7 mph - -   Partly Cloudy
3:00 PM 77.0 °F 57.2 °F 50% 30.18 in 6.2 mi ENE 12.7 mph - N/A   Partly Cloudy
3:30 PM 75.2 °F 55.4 °F 50% 30.15 in 6.2 mi ENE 13.8 mph - N/A   Partly Cloudy
4:00 PM 77.0 °F 57.2 °F 50% 30.15 in 6.2 mi East 12.7 mph - N/A   Partly Cloudy
4:30 PM 75.2 °F 57.2 °F 53% 30.15 in 6.2 mi ENE 16.1 mph - N/A   Partly Cloudy
5:00 PM 74 °F 58 °F 48% 30.17 in - ENE 15.0 mph - -  
5:00 PM 75.2 °F 59.0 °F 57% 30.15 in 6.2 mi ENE 15.0 mph - N/A   Scattered Clouds
5:30 PM 73.4 °F 59.0 °F 61% 30.15 in 6.2 mi ENE 13.8 mph - N/A   Partly Cloudy
6:00 PM 74 °F 59 °F 50% 30.17 in - ENE 11.5 mph - -  
6:00 PM 73.4 °F 59.0 °F 61% 30.15 in 6.2 mi ENE 11.5 mph - N/A   Partly Cloudy
6:30 PM 71.6 °F 59.0 °F 64% 30.15 in 6.2 mi ENE 12.7 mph - N/A   Partly Cloudy
7:00 PM 71.6 °F 59.0 °F 64% 30.15 in - ENE 10.4 mph - N/A   Clear
7:30 PM 69.8 °F 59.0 °F 68% 30.15 in - ENE 10.4 mph - N/A   Clear
8:00 PM 69 °F 58 °F 60% 30.18 in - ENE 10.4 mph - -  
8:00 PM 69.8 °F 59.0 °F 68% 30.15 in - ENE 10.4 mph - N/A   Clear
8:30 PM 69.8 °F 59.0 °F 68% 30.18 in - NE 9.2 mph - N/A   Clear
9:00 PM 69 °F 58 °F 61% 30.20 in - NE 8.1 mph - -  
9:00 PM 68.0 °F 59.0 °F 73% 30.18 in - NE 8.1 mph - N/A   Clear
9:30 PM 68.0 °F 59.0 °F 73% 30.18 in - NE 9.2 mph - N/A   Clear
10:00 PM 68.0 °F 59.0 °F 73% 30.21 in 6.2 mi NE 5.8 mph - N/A   Unknown
10:30 PM 66.2 °F 59.0 °F 78% 30.21 in 6.2 mi ENE 6.9 mph - N/A   Unknown
11:00 PM 66 °F 59 °F 71% 30.20 in - ENE 6.9 mph - -  
11:00 PM 66.2 °F 59.0 °F 78% 30.18 in 6.2 mi ENE 6.9 mph - N/A   Unknown
11:30 PM 64.4 °F 59.0 °F 83% 30.18 in 6.2 mi NE 5.8 mph - N/A   Unknown